Starlink 2081

operational
NORAD ID: 47366 Int'l Des: 2021-005 Owner: SPXS Country: US Constellation: starlink
LEOCIRCULARSTARLINK_TYPE

About Starlink 2081

Description loading...

Live Position

Loading 3D Globe...

Upcoming Passes

Altitude History

Altitude vs Time

uPlot chart will show altitude changes over time

Two-Line Element Set

1 47366U 21005T 25303.22500334 .00000954 00000-0 82929-4 0 9998
2 47366 53.0548 287.2969 0001476 99.9191 260.1965 15.06394509263374
Epoch: Oct 30, 2025 • Age: 26 hours

Current Status

Altitude 546.9 km
Velocity 7.59 km/s
Sub-Earth Point 15.42°N, 63.17°W
Launch Date Jan 20, 2021
Age 4.7 years
Type internet

Technical Details

Classification Payload
Mass 260.00 kg
Dry Mass 248.00 kg
Total Mass 260.00 kg
Length 0.20 m
Diameter 2.80 m
Span 9.00 m
Shape Box + pan
Manufacturer SPXS
Bus Type Starlink
Phase Status In Orbit
Owner/State SPXS/US

Large Constellations

Loading constellations...